Location: Kershaw
(34.5481°N, 80.5823°W)
Time: 16:14:43
(UTC+00:00)

Courier 1B Rocket - Pass Details

Date: 27 September 2022
Orbit: 920 x 1202 km, 28.2° (Epoch: 08 December)

Event Time Altitude Azimuth Distance (km) Brightness Sun altitude
Rises 03:59:01 0° 253° (WSW) 3,553 - -52.8°
Reaches altitude 10° 04:01:42 10° 248° (WSW) 2,603 - -53.1°
Maximum altitude 04:07:38 47° 175° (S) 1,198 - -53.7°
Drops below altitude 10° 04:13:41 10° 104° (ESE) 2,658 - -54.2°
Sets 04:16:27 0° 98° (E) 3,634 - -54.5°
